[[{"header":{"parameterUnit":"m.s-1","parameterCategory":1,"la1":30.2991,"la2":30.254,"lo1":-89.0895,"lo2":-89.0444,"dy":0.0017,"dx":0.0017,"nx":28,"ny":28,"refTime":"2025-06-17T21:00:00:Z","depth":0,"parameterNumber":2,"parameterNumberName":"U-component_of_WINDS"},"data":[0,0,0,0,0,0,0,0,0,0,0,0,0,0,0,0,0,0,0,0,0,0,0,0,0,0,0,0,0,0,0,0,0,0,0,0,0,0,0,0,0,0,0,0,0,0,0,0,0,0,0,0,0,0,0,0,0,0,0.4056,0.4057,0,0.4166,0.4167,0.4169,0.4221,0.4221,0.4221,0.4221,0.4334,0.4337,0.434,0,0,0,0,0,0,0,0,0,0,0,0,0,0.3892,0.3895,0.4056,0.4058,0.4059,0.4166,0.4167,0.4169,0.4221,0.4221,0.4221,0.4221,0.4333,0.4336,0.434,0,0,0,0,0,0,0,0,0,0,0,0,0,0.3979,0.3896,0.4056,0.4098,0.4103,0.4166,0.4167,0.4169,0.4221,0.4221,0.4221,0.4221,0.4331,0.4336,0.434,0.437,0,0,0.4354,0.4356,0,0,0,0,0,0,0,0,0.3974,0.3985,0.409,0.4095,0.4101,0.418,0.4151,0.4237,0.4221,0.4176,0.4221,0.4221,0.4282,0.4291,0.4312,0.4375,0.438,0.4355,0.4358,0.4359,0.4361,0,0,0,0,0,0,0,0.3968,0.398,0.41,0.4092,0.4098,0.4111,0.4123,0.4167,0.4228,0.418,0.4184,0.4196,0.4285,0.4307,0.4315,0.4382,0.4355,0.4359,0.4361,0.4363,0.4476,0.4476,0,0,0,0,0,0,0.3955,0.3975,0.4096,0.4103,0.4036,0.4114,0.4128,0.4154,0.4228,0.4239,0.4196,0.4198,0.4299,0.4309,0.4319,0.4359,0.4359,0.4364,0.4366,0.4475,0.4476,0.4476,0,0,0,0,0,0,0.3951,0.3965,0.4092,0.404,0.4057,0.4117,0.4146,0.4157,0.4179,0.424,0.4251,0.4207,0.43,0.4313,0.4357,0.4364,0.4366,0.437,0.4475,0.4475,0.4476,0.4439,0,0,0,0,0,0,0.3946,0.3963,0.3975,0.404,0.406,0.4128,0.4147,0.4159,0.4186,0.419,0.4254,0.4264,0.4301,0.435,0.4362,0.437,0.4374,0.4475,0.4475,0.4476,0.444,0.4438,0.4436,0,0,0,0,0,0.394,0.396,0.3976,0.399,0.4076,0.4128,0.4139,0.4181,0.4187,0.4199,0.4239,0.4262,0.4361,0.4354,0.4368,0.4377,0.4475,0.4475,0.4476,0.444,0.4438,0.4436,0,0,0,0,0,0,0.3895,0.397,0.3987,0.4029,0.4072,0.4137,0.4154,0.4177,0.4219,0.4221,0.427,0.4284,0.4324,0.4355,0.4346,0.441,0.442,0.4423,0.4388,0.4387,0.4385,0.4377,0.4377,0,0,0,0,0,0.389,0.3926,0.3989,0.402,0.4041,0.4093,0.4118,0.4146,0.4192,0.421,0.4253,0.4297,0.4338,0.4364,0.4405,0.4444,0.4459,0.4458,0.4456,0.4454,0.4456,0.4479,0.448,0.4478,0.4478,0.4478,0,0,0.388,0.3925,0.3945,0.4012,0.4049,0.4085,0.4108,0.4146,0.4173,0.4216,0.4261,0.4294,0.4346,0.4388,0.4408,0.4415,0.446,0.4455,0.4453,0.4456,0.448,0.448,0.448,0.4478,0.4478,0.4478,0,0,0.3881,0.3918,0.3948,0.3984,0.4039,0.4074,0.4081,0.4142,0.4166,0.4211,0.4244,0.4277,0.4347,0.4383,0.441,0.4424,0.4447,0.4436,0.4427,0.4449,0.4449,0.445,0.4455,0.4456,0.4438,0.4438,0.4438,0,0.3861,0.3917,0.3961,0.3997,0.4025,0.4066,0.4096,0.4129,0.4194,0.4213,0.422,0.4308,0.4346,0.4396,0.44,0.442,0.443,0.4429,0.4446,0.4446,0.4447,0.4453,0.4455,0.4436,0.4436,0.4437,0.4437,0,0.3891,0.3929,0.3947,0.4009,0.404,0.4073,0.4121,0.4147,0.4172,0.4206,0.4252,0.4299,0.4351,0.4365,0.439,0.4419,0.4422,0.4436,0.4447,0.4445,0.4451,0.4454,0.4434,0.4434,0.4435,0.4435,0,0,0.3867,0.3952,0.3958,0.3987,0.405,0.408,0.4115,0.4165,0.4186,0.423,0.426,0.4318,0.4332,0.4363,0.4392,0.4411,0.4419,0.4424,0.4426,0.4422,0.4455,0.4444,0.4445,0.4435,0.4436,0.4436,0.445,0,0.3876,0.394,0.3981,0.4029,0.4065,0.4103,0.4134,0.4176,0.4208,0.4244,0.428,0.432,0.4335,0.4354,0.4375,0.4414,0.4427,0.4414,0.4464,0.4466,0.445,0.4449,0.4437,0.4448,0.4453,0.4453,0.4454,0,0.3896,0.3938,0.399,0.4049,0.4066,0.4093,0.4142,0.4175,0.4223,0.4246,0.428,0.431,0.4348,0.4356,0.4409,0.4399,0.4422,0.4445,0.4446,0.4453,0.446,0.4455,0.4453,0.4455,0.4458,0.4458,0.4457,0,0.3873,0.3943,0.3983,0.4007,0.4077,0.4094,0.4124,0.4173,0.42,0.4243,0.4262,0.4308,0.4334,0.4369,0.4411,0.4412,0.4461,0.4471,0.448,0.4479,0.4489,0.4488,0.4491,0.4503,0.4503,0.4503,0.4503,0,0.3879,0.391,0.3974,0.3999,0.4034,0.4079,0.4113,0.4146,0.4189,0.4221,0.4257,0.4286,0.4339,0.4374,0.4407,0.4447,0.4458,0.4477,0.4486,0.4474,0.4472,0.449,0.4491,0.4504,0.4504,0.4503,0.4503,0,0.386,0.3904,0.3951,0.4013,0.403,0.4053,0.4106,0.4132,0.4166,0.4206,0.4218,0.4272,0.4316,0.4361,0.442,0.4442,0.4481,0.4492,0.4464,0.4469,0.4476,0.4475,0.4491,0.4495,0.4504,0.4504,0.4504,0,0.3861,0.3886,0.3951,0.3975,0.4004,0.4042,0.407,0.4116,0.4144,0.4201,0.4219,0.4266,0.4306,0.4374,0.4418,0.4464,0.4477,0.4479,0.4484,0.4472,0.4477,0.4475,0.4478,0.4478,0.4477,0.4477,0.4477,0,0.3859,0.388,0.3919,0.3966,0.3999,0.4039,0.4079,0.4097,0.415,0.418,0.4225,0.4256,0.4316,0.4362,0.4413,0.4444,0.4469,0.4475,0.448,0.4468,0.4451,0.4461,0.446,0.4475,0.4475,0.4475,0.4475,0.4475,0.385,0.3874,0.3923,0.3966,0.4002,0.4039,0.4066,0.4104,0.4142,0.4195,0.422,0.4265,0.4313,0.4384,0.4414,0.445,0.4457,0.4464,0.4466,0.4467,0.4464,0.4445,0.446,0.446,0.446,0.446,0.446,0,0.385,0.3884,0.3923,0.3979,0.4012,0.4033,0.4079,0.4106,0.4146,0.4188,0.4226,0.4278,0.4323,0.4371,0.4418,0.4438,0.4451,0.4449,0.4448,0.4455,0.4455,0.4446,0.4438,0.4438,0.4438,0.4438,0.4438,0.4438,0.3854,0.3895,0.3921,0.398,0.4014,0.4059,0.4083,0.4118,0.4152,0.4208,0.4245,0.4276,0.4321,0.4372,0.4414,0.4427,0.4443,0.4437,0.4454,0.4453,0.4455,0.4456,0.4449,0.444,0.444,0.4451,0.4451,0.4451]},{"header":{"parameterUnit":"m.s-1","parameterCategory":1,"la1":30.2991,"la2":30.254,"lo1":-89.0895,"lo2":-89.0444,"dy":0.0017,"dx":0.0017,"nx":28,"ny":28,"refTime":"2025-06-17T21:00:00:Z","depth":0,"parameterNumber":3,"parameterNumberName":"V-component_of_WINDS"},"data":[0,0,0,0,0,0,0,0,0,0,0,0,0,0,0,0,0,0,0,0,0,0,0,0,0,0,0,0,0,0,0,0,0,0,0,0,0,0,0,0,0,0,0,0,0,0,0,0,0,0,0,0,0,0,0,0,0,0,4.3521,4.3521,0,4.3489,4.3488,4.3488,4.3476,4.3476,4.3476,4.3476,4.3438,4.3437,4.3436,0,0,0,0,0,0,0,0,0,0,0,0,0,4.3569,4.3569,4.3521,4.3521,4.3521,4.3489,4.3488,4.3488,4.3476,4.3476,4.3476,4.3476,4.3439,4.3437,4.3436,0,0,0,0,0,0,0,0,0,0,0,0,0,4.3544,4.3568,4.3521,4.3511,4.351,4.3489,4.3488,4.3488,4.3476,4.3476,4.3476,4.3477,4.3439,4.3437,4.3436,4.3421,0,0,4.343,4.343,0,0,0,0,0,0,0,0,4.3545,4.3542,4.3513,4.3512,4.351,4.3487,4.3491,4.3465,4.3476,4.3489,4.3476,4.3477,4.3454,4.3451,4.3444,4.342,4.3418,4.343,4.3429,4.3429,4.3428,0,0,0,0,0,0,0,4.3547,4.3543,4.3508,4.3512,4.3511,4.3507,4.3503,4.3486,4.347,4.3488,4.3487,4.3483,4.3453,4.3446,4.3443,4.3417,4.343,4.3429,4.3428,4.3427,4.338,4.338,0,0,0,0,0,0,4.3551,4.3545,4.3509,4.3507,4.3529,4.3506,4.3502,4.3494,4.3471,4.3467,4.3483,4.3483,4.3449,4.3445,4.3442,4.3424,4.3429,4.3427,4.3426,4.338,4.338,4.338,0,0,0,0,0,0,4.3552,4.3548,4.3511,4.3526,4.3521,4.3505,4.3496,4.3493,4.3486,4.3467,4.3464,4.3479,4.3449,4.3444,4.3427,4.3423,4.3426,4.3425,4.3381,4.338,4.338,4.3389,0,0,0,0,0,0,4.3554,4.3549,4.3544,4.3526,4.352,4.3498,4.3496,4.3493,4.3484,4.3483,4.3463,4.3459,4.3449,4.343,4.3425,4.342,4.3423,4.3381,4.3381,4.338,4.3389,4.3389,4.3389,0,0,0,0,0,4.3555,4.3546,4.3544,4.3539,4.3514,4.3497,4.3494,4.3483,4.3484,4.3478,4.3466,4.346,4.3424,4.3428,4.3423,4.3418,4.3381,4.3381,4.338,4.3389,4.3389,4.3389,0,0,0,0,0,0,4.3562,4.3544,4.3541,4.3526,4.3514,4.3496,4.3488,4.3483,4.3469,4.3469,4.3455,4.345,4.3435,4.3424,4.3429,4.3403,4.3402,4.3401,4.341,4.341,4.341,4.3413,4.3422,0,0,0,0,0,4.3562,4.3552,4.3536,4.3524,4.3518,4.3505,4.3497,4.349,4.3476,4.347,4.3457,4.3442,4.3428,4.3418,4.3404,4.3387,4.3382,4.3381,4.3381,4.3381,4.338,4.337,4.337,4.3378,4.3378,4.3378,0,0,4.3562,4.355,4.3544,4.3525,4.3515,4.3503,4.35,4.3487,4.3478,4.3468,4.3451,4.3441,4.3424,4.3407,4.3399,4.3398,4.3376,4.338,4.3381,4.3379,4.337,4.3369,4.3368,4.3378,4.3378,4.3378,0,0,4.3555,4.3545,4.3535,4.3525,4.3511,4.3502,4.3499,4.3482,4.3476,4.346,4.3452,4.344,4.3415,4.3403,4.3394,4.3384,4.3378,4.338,4.3379,4.3371,4.337,4.3369,4.3366,4.3365,4.3379,4.3379,4.3379,0,4.3555,4.3539,4.353,4.3518,4.351,4.3502,4.3491,4.3481,4.3462,4.3456,4.3455,4.3425,4.3413,4.3394,4.3392,4.3384,4.338,4.3382,4.3371,4.337,4.337,4.3366,4.3365,4.3379,4.3379,4.3379,4.3379,0,4.354,4.3529,4.3522,4.3506,4.3497,4.3486,4.3474,4.3466,4.346,4.3451,4.3434,4.342,4.3402,4.3397,4.339,4.3377,4.3377,4.3374,4.3373,4.3369,4.3366,4.3364,4.338,4.3379,4.3379,4.3379,0,0,4.3536,4.3516,4.3514,4.3507,4.349,4.3481,4.3469,4.3454,4.3447,4.3434,4.3423,4.3403,4.3401,4.3391,4.3383,4.3375,4.3368,4.3373,4.3372,4.3372,4.3353,4.3355,4.3354,4.3364,4.3364,4.3364,4.3354,0,4.3527,4.3507,4.3499,4.3483,4.3472,4.3465,4.3454,4.3443,4.3434,4.3423,4.3412,4.3399,4.3397,4.3391,4.3383,4.3371,4.3364,4.3371,4.3353,4.3353,4.3358,4.3352,4.3354,4.3346,4.3353,4.3353,4.3352,0,4.3513,4.3503,4.3486,4.3472,4.3467,4.3458,4.3444,4.3434,4.342,4.3414,4.3404,4.3397,4.3383,4.3383,4.3364,4.3369,4.3361,4.3355,4.3354,4.3351,4.3352,4.3349,4.3343,4.3342,4.335,4.335,4.3351,0,4.3512,4.3493,4.3481,4.3475,4.3458,4.3452,4.3444,4.3431,4.3423,4.341,4.3405,4.339,4.3382,4.337,4.3359,4.336,4.3341,4.334,4.3335,4.3335,4.333,4.3331,4.3323,4.3326,4.3326,4.3326,4.3326,0,4.3502,4.3492,4.348,4.3472,4.3461,4.3451,4.344,4.3431,4.342,4.341,4.3402,4.3392,4.3378,4.3366,4.3357,4.3343,4.3339,4.3333,4.3331,4.3334,4.3335,4.3328,4.3328,4.3326,4.3326,4.3326,4.3326,0,4.3498,4.349,4.3476,4.3462,4.3458,4.345,4.3438,4.343,4.3421,4.3409,4.3405,4.3391,4.3377,4.3365,4.3346,4.334,4.3325,4.3322,4.333,4.3329,4.3324,4.3325,4.3311,4.3309,4.3314,4.3314,4.3314,0,4.3493,4.3485,4.3471,4.3465,4.3458,4.3448,4.344,4.343,4.3422,4.3407,4.3401,4.3387,4.3375,4.3352,4.334,4.3325,4.3322,4.3318,4.3319,4.3323,4.3322,4.3322,4.3321,4.3318,4.3318,4.3318,4.3318,0,4.3484,4.3481,4.3471,4.3459,4.3451,4.3441,4.3431,4.3426,4.3414,4.3405,4.3392,4.3383,4.3365,4.3351,4.3335,4.3326,4.332,4.3318,4.3316,4.3319,4.3324,4.3321,4.333,4.3318,4.3318,4.3318,4.3318,4.3318,4.3479,4.3472,4.3462,4.3451,4.3443,4.3434,4.3426,4.3418,4.3407,4.3393,4.3387,4.3373,4.336,4.3339,4.333,4.3318,4.3317,4.3314,4.3313,4.3313,4.3314,4.3326,4.3315,4.3315,4.3315,4.3315,4.3315,0,4.347,4.3463,4.3454,4.3441,4.3432,4.343,4.3418,4.3411,4.34,4.3389,4.3378,4.3363,4.3349,4.3337,4.3322,4.3315,4.3312,4.3312,4.3312,4.331,4.3315,4.3318,4.3315,4.3315,4.3315,4.3315,4.3315,4.3315,4.3464,4.3453,4.3448,4.3433,4.3426,4.3414,4.3408,4.3399,4.3391,4.3375,4.3364,4.3357,4.3345,4.333,4.3317,4.3313,4.3308,4.3309,4.3304,4.3309,4.331,4.331,4.3313,4.3308,4.3308,4.33,4.33,4.33]}]]